Atlantic - Newfoundland: Past 24 Hour Conditions

 

Îles de la Madeleine Airport

02:00 AM ADT 24 April 2014
This table is a summary of hourly weather conditions for the past 24 hours.
Date / Time
(ADT)
Wind(knots) Conditions Visibility(km) Pressure(kPa) Air tempC) Relative humidity(%) Dew pointC)
24 April 2014
2:00 E 17 N/A N/A 100.1 3 91 1
1:00 E 16 gust 21 N/A N/A 100.1 3 91 2
0:00 E 17 gust 22 N/A N/A 100.1 4 90 2
23 April 2014
23:00 ESE 17 gust 25 Mostly Cloudy 24 100.2 3 91 2
22:00 ESE 20 Mostly Cloudy 24 100.2 3 96 3
21:00 ESE 21 gust 28 Mist 10 100.2 3 98 2
20:00 ESE 17 gust 23 Mist 8 100.2 2 98 2
19:00 ESE 20 gust 26 Mist 1 100.2 2 98 1
18:00 ESE 19 Mist 2 100.2 2 97 1
17:00 ESE 19 gust 24 Mist 6 100.2 2 95 2
16:00 ESE 19 Partly Cloudy 11 100.2 2 92 1
15:00 ESE 20 gust 27 Cloudy 11 100.2 2 93 1
14:00 ESE 19 gust 24 Mostly Cloudy 13 100.2 3 90 1
13:00 SE 17 Partly Cloudy 11 100.3 2 92 1
12:00 ESE 12 Partly Cloudy 11 100.3 2 95 2
11:00 ESE 13 Mist 10 100.4 2 95 1
10:00 ESE 16 Mist 8 100.4 2 98 1
9:00 ESE 12 Mist 6 100.4 2 97 1
8:00 ESE 14 Mist 10 100.4 1 97 1
7:00 ESE 10 Mostly Cloudy 11 100.4 2 97 1
6:00 ESE 10 Partly Cloudy 11 100.4 1 97 1
5:00 ESE 8 N/A N/A 100.4 2 96 1
4:00 ESE 10 N/A N/A 100.4 2 96 1
3:00 ESE 9 N/A N/A 100.4 1 97 1
2:00 ESE 9 N/A N/A 100.5 1 94 1
 
Map of Atlantic - Newfoundland marine weather areas Southwestern Grand Banks - 44138 Banquereau - 44139 Tail of the Bank - 44140 Nickerson Bank - 44251 Northeast Burgeo Bank - 44255 Blanc-Sablon Airport Cap Whittle Chevery Natashquan Airport Heath Point Miscou Island Grand Étang Ingonish Beach North Mountain St.Paul Island J.A. Douglas McCurdy Sydney Airport Charlottetown Airport East Point North Cape Argentia Bonavista Burgeo Cape Race Corner Brook Daniel's Harbour Englee Ferolle Point La Scie Port aux Basques Rocky Harbour Sagona Island St. Anthony Airport St. John's Int'l Airport St. Lawrence Stephenville Airport Twillingate Winterland Wreckhouse Cartwright Airport Mary's Harbour Grates Cove Pool's Island Marticot Island Long Pond Îles de la Madeleine Airport
Legend: buoyBuoy land stationLand Station